Location: Recife
(8.0585°S, 34.8848°W)
Time: 06:48:17
(UTC-03:00)

Vanguard 3 - Pass Details

Date: 22 April 2026
Orbit: 507 x 3205 km, 33.4° (Epoch: 13 May)

Event Time Altitude Azimuth Distance (km) Brightness Sun altitude
Rises 05:15:37 0° 303° (WNW) 3,472 10.0 -2.3°
Reaches altitude 10° 05:17:39 10° 303° (WNW) 2,759 9.5 -1.8°
Maximum altitude 05:24:29 86° 215° (SW) 1,448 8.5 -0.2°
Drops below altitude 10° 05:37:09 10° 125° (SE) 4,874 11.8 2.9°
Sets 05:41:57 0° 125° (SE) 6,284 12.4 4.1°
